Weather in Borovlyanka

Russia / Kurgan Oblast     56°14′31″N   65°28′01″E
temp.,
°C
wind,
m/s
gust,
m/s
humid.,
%
clouds,
%
prec.,
mm/h
press.,
hPa
HPBL,
m
8 march, mon
mon823:00−10n51095100 3.5 1002469
02:00−11nw499398 0.4 1005379
05:00−16wnw389569 0.4 1007167
08:00−18w48960 0.0 1008168
11:00−13wsw369112 0.0 1010310
14:00−10sw488568 0.0 1010650
17:00−10s5108884 0.0 1008748
20:00−10s51393100 0.2 1007673
9 march, tue
tue923:00−8ssw51390100 0.3 1006598
02:00−7sw6158884 0.0 1006604
05:00−7sw5148789 0.0 1007529
08:00−7ssw51392100 0.0 1006474
11:00−4ssw71292100 0.9 1005914
14:00−3sw71389100 0.3 10031134
17:00−3wsw7147383 1.1 10051284
20:00−8w4108927 0.0 1009244
10 march, wed
wed1023:00−11wsw239216 0.0 101229
02:00−13sw229282 0.0 101221
05:00−13s229191 0.0 101120
08:00−12sse2594100 0.0 1009107
11:00−7se3591100 0.0 1007308
14:00−5ese3689100 0.0 1005555
17:00−5ese4791100 0.1 1002632
20:00−7e4995100 0.6 1000477
11 march, thu
thu1123:00−7e41095100 1.4 999466
02:00−8e4895100 1.0 998416
05:00−10sse2596100 2.6 999260
08:00−16sw4794100 0.6 1000261
11:00−15ssw3494100 0.7 1001275
14:00−12s2188100 0.1 1002430
17:00−13nnw5793100 0.5 1004603
20:00−16nnw4994100 0.4 1006664
12 march, fri
fri1223:00−19nw4995100 0.6 1009634
02:00−21nw4894100 0.1 1011507
05:00−22wnw4895100 0.1 1013452
08:00−27wnw479690 0.0 1016236
11:00−23wnw479593 0.1 1018416
14:00−18wnw4887100 0.1 1019618
17:00−17wnw478695 0.1 1020618
20:00−22wsw389438 0.0 1022142